Tracking 23611 objects as of 18-Sep-2021
HD Live streaming from Space Station
objects crossing your sky now
Track INSPIRATION-4

STARLINK-1257

Track STARLINK-1257 now!
10-day predictions
STARLINK-1257 is classified as:


NORAD ID: 45402
Int'l Code: 2020-019AU
Perigee: 553.7 km
Apogee: 555.0 km
Inclination: 53.1 °
Period: 95.6 minutes
Semi major axis: 6925 km
RCS: Unknown
Launch date: March 18, 2020
Source: United States (US)
Launch site: AIR FORCE EASTERN TEST RANGE (AFETR)
aabbcc
Your satellite tracking list
Your tracking list is empty




NASA's NSSDC Master Catalog

Two Line Element Set (TLE):
1 45402U 20019AU  21260.76585270  .00000839  00000-0  75220-4 0  9998
2 45402  53.0537 271.5888 0000897  80.1010 280.0080 15.06396242 83695
Source of the keplerian elements: AFSPC